KAC965 VTBS-VTSP

Flight info

Callsign KAC965
Flight time 1h 10m
Altitude 32000
Route VANKO1E VANKO Y8 SAVSA SAVSA1C
Aircraft A320/M-SDE3FGHIRWY/LB1

Departure

Time 2026-05-08 01:03
Airport Suvarnabhumi Airport (VTBS)

Arrival

Time 2026-05-08 02:13
Airport Phuket International Airport (VTSP)
Time Latitude Longitude Altitude Speed Heading
2026-05-08 00:31 13.69214 100.74486 15 ft 0 kts 14°
2026-05-08 00:52 13.69213 100.74485 13 ft 2 kts 14°
2026-05-08 00:53 13.69188 100.74480 13 ft 4 kts
2026-05-08 00:53 13.69161 100.74476 13 ft 4 kts 358°
2026-05-08 00:53 13.69136 100.74481 13 ft 4 kts 320°
2026-05-08 00:53 13.69128 100.74491 13 ft 0 kts 285°
2026-05-08 00:58 13.69129 100.74490 13 ft 1 kts 285°
2026-05-08 00:58 13.69136 100.74462 15 ft 7 kts 285°
2026-05-08 00:58 13.69154 100.74394 15 ft 13 kts 283°
2026-05-08 00:59 13.69180 100.74286 15 ft 17 kts 284°
2026-05-08 00:59 13.69259 100.74218 13 ft 18 kts
2026-05-08 00:59 13.69383 100.74250 15 ft 19 kts 15°
2026-05-08 00:59 13.69517 100.74286 13 ft 21 kts 14°
2026-05-08 01:00 13.69660 100.74323 13 ft 22 kts 14°
2026-05-08 01:00 13.69812 100.74362 13 ft 23 kts 14°
2026-05-08 01:00 13.69905 100.74328 14 ft 16 kts 291°
2026-05-08 01:00 13.69913 100.74299 14 ft 0 kts 285°
2026-05-08 01:01 13.69914 100.74296 13 ft 4 kts 285°
2026-05-08 01:01 13.69927 100.74216 14 ft 14 kts 250°
2026-05-08 01:01 13.69854 100.74184 13 ft 11 kts 195°
2026-05-08 01:02 13.69786 100.74167 12 ft 9 kts 194°
2026-05-08 01:02 13.69639 100.74129 10 ft 52 kts 194°
2026-05-08 01:02 13.69059 100.73978 14 ft 116 kts 194°
2026-05-08 01:02 13.68098 100.73725 13 ft 166 kts 194°
2026-05-08 01:03 13.66945 100.73427 504 ft 169 kts 192°
2026-05-08 01:03 13.65821 100.73123 1215 ft 168 kts 195°
2026-05-08 01:03 13.64635 100.72764 1518 ft 189 kts 195°
2026-05-08 01:03 13.63294 100.72362 1767 ft 213 kts 195°
2026-05-08 01:04 13.61779 100.71932 2078 ft 237 kts 194°
2026-05-08 01:04 13.60105 100.71482 2437 ft 260 kts 194°
2026-05-08 01:04 13.58317 100.71021 3114 ft 269 kts 194°
2026-05-08 01:04 13.56489 100.70568 3903 ft 273 kts 193°
2026-05-08 01:05 13.54631 100.70118 4705 ft 276 kts 194°
2026-05-08 01:05 13.52829 100.69414 5483 ft 280 kts 209°
2026-05-08 01:05 13.51260 100.68214 6236 ft 284 kts 225°
2026-05-08 01:05 13.49945 100.66686 6985 ft 287 kts 229°
2026-05-08 01:06 13.48630 100.65124 7716 ft 291 kts 229°
2026-05-08 01:06 13.47295 100.63543 8426 ft 294 kts 229°
2026-05-08 01:06 13.45942 100.61945 9114 ft 298 kts 228°
2026-05-08 01:06 13.44574 100.60330 9750 ft 303 kts 228°
2026-05-08 01:07 13.43179 100.58687 9959 ft 305 kts 228°
2026-05-08 01:07 13.41734 100.56987 10002 ft 326 kts 228°
2026-05-08 01:07 13.40261 100.55249 10005 ft 327 kts 227°
2026-05-08 01:07 13.38600 100.53611 10145 ft 343 kts 220°
2026-05-08 01:08 13.36783 100.51996 10788 ft 347 kts 220°
2026-05-08 01:08 13.34955 100.50358 11435 ft 351 kts 220°
2026-05-08 01:08 13.33113 100.48701 12084 ft 354 kts 220°
2026-05-08 01:08 13.31252 100.47027 12732 ft 357 kts 220°
2026-05-08 01:09 13.29374 100.45342 13370 ft 360 kts 220°
2026-05-08 01:09 13.27483 100.43646 13986 ft 363 kts 220°
2026-05-08 01:09 13.25569 100.41930 14571 ft 366 kts 220°
2026-05-08 01:09 13.23640 100.40202 15147 ft 369 kts 220°
2026-05-08 01:10 13.21698 100.38461 15690 ft 373 kts 220°
2026-05-08 01:10 13.19739 100.36702 16068 ft 375 kts 220°
2026-05-08 01:10 13.17767 100.34932 16647 ft 377 kts 220°
2026-05-08 01:10 13.15781 100.33155 17186 ft 380 kts 219°
2026-05-08 01:11 13.13802 100.31392 17689 ft 383 kts 219°
2026-05-08 01:11 13.11784 100.29594 17889 ft 384 kts 219°
2026-05-08 01:11 13.09766 100.27793 17912 ft 384 kts 220°
2026-05-08 01:11 13.07753 100.25995 17903 ft 384 kts 220°
2026-05-08 01:12 13.05742 100.24197 17905 ft 383 kts 220°
2026-05-08 01:12 13.03725 100.22391 18275 ft 386 kts 220°
2026-05-08 01:12 13.01691 100.20572 18789 ft 389 kts 220°
2026-05-08 01:12 12.99646 100.18732 19283 ft 392 kts 221°
2026-05-08 01:13 12.97655 100.16804 19760 ft 395 kts 223°
2026-05-08 01:13 12.95711 100.14793 20227 ft 398 kts 225°
2026-05-08 01:13 12.93786 100.12737 20684 ft 401 kts 225°
2026-05-08 01:13 12.91853 100.10655 21124 ft 404 kts 225°
2026-05-08 01:14 12.89907 100.08568 21566 ft 407 kts 225°
2026-05-08 01:14 12.87931 100.06474 22003 ft 410 kts 224°
2026-05-08 01:14 12.85931 100.04379 22435 ft 412 kts 224°
2026-05-08 01:14 12.83909 100.02278 22853 ft 415 kts 224°
2026-05-08 01:15 12.81874 100.00169 23249 ft 417 kts 224°
2026-05-08 01:15 12.79834 99.98051 23611 ft 418 kts 224°
2026-05-08 01:15 12.77782 99.95925 23950 ft 421 kts 224°
2026-05-08 01:15 12.75716 99.93784 24297 ft 424 kts 224°
2026-05-08 01:16 12.73660 99.91651 24631 ft 426 kts 224°
2026-05-08 01:16 12.71549 99.89456 24962 ft 427 kts 224°
2026-05-08 01:16 12.69477 99.87296 25264 ft 431 kts 224°
2026-05-08 01:16 12.67368 99.85101 25585 ft 434 kts 224°
2026-05-08 01:17 12.65243 99.82893 25893 ft 436 kts 224°
2026-05-08 01:17 12.63101 99.80682 26200 ft 438 kts 222°
2026-05-08 01:17 12.60719 99.78740 26491 ft 438 kts 211°
2026-05-08 01:17 12.58023 99.77289 26765 ft 438 kts 200°
2026-05-08 01:18 12.55107 99.76381 27038 ft 439 kts 189°
2026-05-08 01:18 12.52073 99.76048 27298 ft 439 kts 179°
2026-05-08 01:18 12.49012 99.76053 27563 ft 441 kts 178°
2026-05-08 01:18 12.45942 99.76059 27834 ft 443 kts 178°
2026-05-08 01:19 12.42854 99.76063 28088 ft 445 kts 178°
2026-05-08 01:19 12.39752 99.76067 28336 ft 447 kts 178°
2026-05-08 01:19 12.36632 99.76069 28574 ft 448 kts 178°
2026-05-08 01:19 12.33507 99.76071 28813 ft 450 kts 178°
2026-05-08 01:20 12.30404 99.76075 29045 ft 452 kts 178°
2026-05-08 01:20 12.27253 99.76078 29286 ft 454 kts 178°
2026-05-08 01:20 12.24088 99.76079 29511 ft 456 kts 178°
2026-05-08 01:20 12.20908 99.76081 29737 ft 457 kts 178°
2026-05-08 01:21 12.17717 99.76084 29958 ft 459 kts 178°
2026-05-08 01:21 12.14524 99.76090 30162 ft 460 kts 178°
2026-05-08 01:21 12.11310 99.76095 30358 ft 462 kts 178°
2026-05-08 01:21 12.08090 99.76096 30555 ft 464 kts 178°
2026-05-08 01:22 12.04853 99.76096 30742 ft 466 kts 178°
2026-05-08 01:22 12.01605 99.76098 30924 ft 467 kts 178°
2026-05-08 01:22 11.98351 99.76100 31113 ft 468 kts 178°
2026-05-08 01:22 11.96193 99.76099 31288 ft 468 kts 178°
2026-05-08 01:23 11.92943 99.76097 31563 ft 467 kts 179°
2026-05-08 01:23 11.89692 99.76098 31813 ft 467 kts 179°
2026-05-08 01:23 11.86451 99.76102 31887 ft 460 kts 178°
2026-05-08 01:23 11.83293 99.76106 31898 ft 449 kts 178°
2026-05-08 01:24 11.80182 99.76111 31896 ft 445 kts 178°
2026-05-08 01:24 11.74011 99.76119 31898 ft 443 kts 178°
2026-05-08 01:25 11.67832 99.76129 31897 ft 443 kts 178°
2026-05-08 01:25 11.61668 99.76137 31897 ft 443 kts 178°
2026-05-08 01:26 11.58039 99.76143 31895 ft 443 kts 178°
2026-05-08 01:26 11.53358 99.76148 31896 ft 442 kts 178°
2026-05-08 01:27 11.47236 99.76154 31899 ft 443 kts 178°
2026-05-08 01:27 11.41079 99.76162 31902 ft 442 kts 178°
2026-05-08 01:28 11.34926 99.76169 31903 ft 442 kts 179°
2026-05-08 01:28 11.28766 99.76174 31905 ft 442 kts 179°
2026-05-08 01:29 11.22617 99.76176 31906 ft 441 kts 179°
2026-05-08 01:29 11.16477 99.76177 31903 ft 442 kts 180°
2026-05-08 01:30 11.10494 99.75030 31906 ft 443 kts 195°
2026-05-08 01:30 11.04590 99.73167 31907 ft 443 kts 196°
2026-05-08 01:31 10.98686 99.71324 31908 ft 443 kts 195°
2026-05-08 01:31 10.92867 99.69507 31904 ft 442 kts 195°
2026-05-08 01:32 10.86985 99.67666 31902 ft 442 kts 196°
2026-05-08 01:32 10.81111 99.65830 31902 ft 441 kts 196°
2026-05-08 01:33 10.75239 99.63994 31899 ft 441 kts 196°
2026-05-08 01:33 10.69421 99.62167 31897 ft 440 kts 196°
2026-05-08 01:34 10.63560 99.60335 31896 ft 440 kts 196°
2026-05-08 01:34 10.57711 99.58506 31896 ft 440 kts 196°
2026-05-08 01:35 10.51864 99.56680 31894 ft 439 kts 196°
2026-05-08 01:35 10.46016 99.54857 31893 ft 439 kts 196°
2026-05-08 01:36 10.40170 99.53031 31892 ft 439 kts 196°
2026-05-08 01:36 10.34323 99.51205 31893 ft 439 kts 196°
2026-05-08 01:37 10.28487 99.49381 31894 ft 439 kts 196°
2026-05-08 01:37 10.22692 99.47580 31894 ft 438 kts 196°
2026-05-08 01:38 10.16863 99.45766 31892 ft 438 kts 196°
2026-05-08 01:38 10.11039 99.43946 31889 ft 438 kts 196°
2026-05-08 01:39 10.05213 99.42135 31886 ft 438 kts 196°
2026-05-08 01:39 9.99396 99.40327 31885 ft 438 kts 196°
2026-05-08 01:40 9.93574 99.38510 31885 ft 437 kts 196°
2026-05-08 01:40 9.87760 99.36702 31886 ft 437 kts 196°
2026-05-08 01:41 9.81946 99.34896 31887 ft 438 kts 196°
2026-05-08 01:41 9.76121 99.33084 31890 ft 438 kts 196°
2026-05-08 01:42 9.70307 99.31280 31878 ft 437 kts 196°
2026-05-08 01:42 9.64530 99.29482 31878 ft 438 kts 196°
2026-05-08 01:43 9.60843 99.28334 31879 ft 438 kts 196°
2026-05-08 01:43 9.59739 99.27988 31872 ft 439 kts 195°
2026-05-08 01:44 9.53885 99.26174 31899 ft 440 kts 196°
2026-05-08 01:44 9.48054 99.24379 31892 ft 437 kts 196°
2026-05-08 01:45 9.42231 99.22566 31884 ft 437 kts 196°
2026-05-08 01:45 9.36403 99.20754 31882 ft 438 kts 196°
2026-05-08 01:46 9.30609 99.18957 31884 ft 438 kts 196°
2026-05-08 01:46 9.24738 99.17130 31886 ft 438 kts 196°
2026-05-08 01:47 9.18975 99.15334 31883 ft 438 kts 196°
2026-05-08 01:47 9.13240 99.13246 31882 ft 439 kts 207°
2026-05-08 01:48 9.08269 99.09647 31883 ft 441 kts 218°
2026-05-08 01:48 9.05891 99.07692 31883 ft 441 kts 218°
2026-05-08 01:48 9.01128 99.03783 31817 ft 440 kts 218°
2026-05-08 01:49 8.98769 99.01850 31557 ft 431 kts 218°
2026-05-08 01:49 8.96461 98.99957 31300 ft 425 kts 218°
2026-05-08 01:49 8.94168 98.98079 31059 ft 423 kts 218°
2026-05-08 01:49 8.91885 98.96211 30805 ft 421 kts 218°
2026-05-08 01:50 8.89611 98.94352 30555 ft 420 kts 218°
2026-05-08 01:50 8.87341 98.92499 30304 ft 418 kts 218°
2026-05-08 01:50 8.85589 98.91068 30109 ft 417 kts 218°
2026-05-08 01:50 8.84665 98.90315 30002 ft 417 kts 218°
2026-05-08 01:51 8.82412 98.88475 29749 ft 415 kts 218°
2026-05-08 01:51 8.80167 98.86641 29498 ft 414 kts 218°
2026-05-08 01:51 8.77960 98.84845 29251 ft 412 kts 218°
2026-05-08 01:51 8.75729 98.83033 29001 ft 411 kts 218°
2026-05-08 01:52 8.73507 98.81225 28748 ft 409 kts 218°
2026-05-08 01:52 8.71292 98.79424 28365 ft 409 kts 218°
2026-05-08 01:52 8.69050 98.77601 27194 ft 415 kts 217°
2026-05-08 01:52 8.66795 98.75767 26162 ft 415 kts 217°
2026-05-08 01:53 8.64557 98.73943 25258 ft 411 kts 217°
2026-05-08 01:53 8.62346 98.72140 24411 ft 406 kts 217°
2026-05-08 01:53 8.60161 98.70360 23564 ft 401 kts 217°
2026-05-08 01:53 8.58006 98.68606 22825 ft 393 kts 217°
2026-05-08 01:54 8.55915 98.66903 22346 ft 379 kts 217°
2026-05-08 01:54 8.53905 98.65255 21881 ft 366 kts 220°
2026-05-08 01:54 8.52218 98.63376 21427 ft 359 kts 234°
2026-05-08 01:54 8.51025 98.61166 20990 ft 360 kts 248°
2026-05-08 01:55 8.50380 98.58724 20536 ft 360 kts 262°
2026-05-08 01:55 8.50269 98.57200 20265 ft 361 kts 268°
2026-05-08 01:55 8.50215 98.54833 19837 ft 361 kts 268°
2026-05-08 01:55 8.50149 98.52338 19399 ft 360 kts 268°
2026-05-08 01:56 8.50076 98.49804 18942 ft 360 kts 267°
2026-05-08 01:56 8.49996 98.47280 18507 ft 359 kts 267°
2026-05-08 01:56 8.49913 98.44753 18043 ft 359 kts 267°
2026-05-08 01:56 8.49833 98.42237 17605 ft 359 kts 267°
2026-05-08 01:57 8.49755 98.39717 17170 ft 358 kts 267°
2026-05-08 01:57 8.49677 98.37202 16741 ft 358 kts 267°
2026-05-08 01:57 8.49600 98.34692 16298 ft 357 kts 267°
2026-05-08 01:57 8.49521 98.32187 15867 ft 356 kts 267°
2026-05-08 01:58 8.49442 98.29689 15444 ft 355 kts 267°
2026-05-08 01:58 8.49364 98.27201 15028 ft 354 kts 267°
2026-05-08 01:58 8.49284 98.24721 14598 ft 351 kts 268°
2026-05-08 01:58 8.49206 98.22303 14186 ft 339 kts 268°
2026-05-08 01:59 8.49131 98.19967 13789 ft 327 kts 268°
2026-05-08 01:59 8.49060 98.17707 13401 ft 316 kts 268°
2026-05-08 01:59 8.48992 98.15513 13023 ft 312 kts 268°
2026-05-08 01:59 8.48922 98.13318 12646 ft 312 kts 268°
2026-05-08 02:00 8.48852 98.11122 12265 ft 313 kts 268°
2026-05-08 02:00 8.48783 98.08955 11882 ft 313 kts 268°
2026-05-08 02:00 8.48714 98.06758 11480 ft 313 kts 268°
2026-05-08 02:00 8.48645 98.04555 11085 ft 313 kts 268°
2026-05-08 02:01 8.48563 98.02367 10782 ft 310 kts 264°
2026-05-08 02:01 8.47983 98.00296 10398 ft 306 kts 239°
2026-05-08 02:01 8.46648 97.98659 10009 ft 302 kts 216°
2026-05-08 02:01 8.44802 97.97699 9503 ft 300 kts 192°
2026-05-08 02:02 8.42747 97.97549 9025 ft 297 kts 170°
2026-05-08 02:02 8.40713 97.97900 8539 ft 296 kts 168°
2026-05-08 02:02 8.38708 97.98259 8047 ft 290 kts 168°
2026-05-08 02:02 8.37087 97.98547 7659 ft 289 kts 168°
2026-05-08 02:03 8.35592 97.98811 7306 ft 287 kts 168°
2026-05-08 02:03 8.33678 97.99147 7105 ft 272 kts 168°
2026-05-08 02:03 8.31839 97.99470 6765 ft 264 kts 168°
2026-05-08 02:04 8.30072 97.99761 6638 ft 261 kts 170°
2026-05-08 02:04 8.28266 97.99977 6515 ft 262 kts 172°
2026-05-08 02:04 8.26451 98.00156 6332 ft 261 kts 173°
2026-05-08 02:04 8.24646 98.00329 6079 ft 260 kts 173°
2026-05-08 02:05 8.22852 98.00504 5820 ft 258 kts 173°
2026-05-08 02:05 8.21065 98.00683 5563 ft 258 kts 172°
2026-05-08 02:05 8.19281 98.00861 5296 ft 257 kts 172°
2026-05-08 02:05 8.17504 98.01040 5020 ft 256 kts 173°
2026-05-08 02:06 8.15730 98.01211 4741 ft 255 kts 173°
2026-05-08 02:06 8.13964 98.01377 4493 ft 252 kts 173°
2026-05-08 02:06 8.12265 98.01534 4399 ft 241 kts 173°
2026-05-08 02:06 8.10613 98.01732 4297 ft 237 kts 163°
2026-05-08 02:07 8.09266 98.02584 4192 ft 230 kts 125°
2026-05-08 02:07 8.08724 98.04058 3980 ft 226 kts 89°
2026-05-08 02:07 8.08842 98.05637 3765 ft 227 kts 83°
2026-05-08 02:07 8.09001 98.07220 3551 ft 227 kts 83°
2026-05-08 02:08 8.09163 98.08801 3348 ft 224 kts 83°
2026-05-08 02:08 8.09319 98.10343 3134 ft 218 kts 83°
2026-05-08 02:08 8.09464 98.11844 2937 ft 211 kts 83°
2026-05-08 02:08 8.09601 98.13297 2762 ft 205 kts 84°
2026-05-08 02:09 8.09729 98.14697 2593 ft 201 kts 84°
2026-05-08 02:09 8.09855 98.16089 2442 ft 197 kts 84°
2026-05-08 02:09 8.09977 98.17400 2293 ft 180 kts 84°
2026-05-08 02:09 8.10088 98.18605 2099 ft 164 kts 84°
2026-05-08 02:10 8.10192 98.19708 1957 ft 153 kts 84°
2026-05-08 02:10 8.10289 98.20754 1861 ft 147 kts 84°
2026-05-08 02:10 8.10384 98.21772 1718 ft 144 kts 83°
2026-05-08 02:10 8.10477 98.22773 1530 ft 143 kts 84°
2026-05-08 02:11 8.10570 98.23770 1340 ft 142 kts 84°
2026-05-08 02:11 8.10664 98.24761 1146 ft 142 kts 84°
2026-05-08 02:11 8.10758 98.25749 953 ft 141 kts 84°
2026-05-08 02:11 8.10851 98.26734 771 ft 141 kts 84°
2026-05-08 02:12 8.10945 98.27716 585 ft 140 kts 84°
2026-05-08 02:12 8.11038 98.28686 403 ft 140 kts 84°
2026-05-08 02:12 8.11131 98.29673 217 ft 142 kts 84°
2026-05-08 02:12 8.11225 98.30652 45 ft 139 kts 85°
2026-05-08 02:13 8.11305 98.31507 37 ft 94 kts 84°
2026-05-08 02:13 8.11350 98.31956 57 ft 53 kts 84°
2026-05-08 02:13 8.11372 98.32183 64 ft 46 kts 84°
2026-05-08 02:13 8.11324 98.32411 72 ft 12 kts 123°
2026-05-08 02:14 8.11260 98.32414 76 ft 10 kts 227°
2026-05-08 02:14 8.11250 98.32369 75 ft 10 kts 265°
2026-05-08 02:14 8.11243 98.32292 70 ft 12 kts 265°
2026-05-08 02:14 8.11232 98.32172 64 ft 14 kts 263°
2026-05-08 02:15 8.11225 98.32102 59 ft 15 kts 264°
2026-05-08 02:15 8.11210 98.31942 52 ft 19 kts 265°
2026-05-08 02:15 8.11201 98.31843 53 ft 23 kts 265°
2026-05-08 02:15 8.11195 98.31765 49 ft 1 kts 265°
2026-05-08 02:16 8.11194 98.31764 49 ft 0 kts 265°
2026-05-08 02:16 8.11194 98.31760 49 ft 2 kts 265°
2026-05-08 02:16 8.11193 98.31749 48 ft 3 kts 265°
2026-05-08 02:16 8.11193 98.31742 48 ft 4 kts 265°
2026-05-08 02:17 8.11189 98.31704 46 ft 7 kts 264°
2026-05-08 02:17 8.11183 98.31651 44 ft 9 kts 262°
2026-05-08 02:17 8.11176 98.31585 39 ft 10 kts 266°
2026-05-08 02:17 8.11169 98.31507 38 ft 12 kts 264°
2026-05-08 02:18 8.11161 98.31418 35 ft 13 kts 264°
2026-05-08 02:18 8.11152 98.31326 33 ft 14 kts 265°
2026-05-08 02:18 8.11143 98.31231 31 ft 13 kts 264°
2026-05-08 02:18 8.11137 98.31163 30 ft 13 kts 264°
2026-05-08 02:19 8.11130 98.31093 30 ft 12 kts 264°
2026-05-08 02:19 8.11124 98.31032 30 ft 0 kts 264°
2026-05-08 02:20 8.11123 98.31025 30 ft 4 kts 264°
2026-05-08 02:20 8.11120 98.30996 29 ft 4 kts 259°
2026-05-08 02:20 8.11111 98.30973 29 ft 3 kts 244°
2026-05-08 02:21 8.11101 98.30956 29 ft 2 kts 238°
2026-05-08 02:21 8.11089 98.30927 29 ft 16 kts 255°
2026-05-08 02:21 8.11072 98.30736 28 ft 30 kts 265°
2026-05-08 02:21 8.11051 98.30528 27 ft 20 kts 263°
2026-05-08 02:22 8.10973 98.30473 27 ft 14 kts 195°
2026-05-08 02:22 8.10881 98.30450 27 ft 13 kts 195°
2026-05-08 02:22 8.10818 98.30434 27 ft 12 kts 194°
2026-05-08 02:22 8.10763 98.30419 27 ft 10 kts 190°
2026-05-08 02:23 8.10727 98.30459 27 ft 7 kts 97°
2026-05-08 02:23 8.10716 98.30498 27 ft 3 kts 104°
2026-05-08 02:23 8.10714 98.30503 27 ft 0 kts 104°